Time,TemperatureF,DewpointF,PressureIn,WindDirection,WindDirectionDegrees,WindSpeedMPH,WindSpeedGustMPH,Humidity,HourlyPrecipIn,Conditions,Clouds,dailyrainin,SoftwareType,DateUTC
2013-08-19 00:12:00,82.9,78.0,30.07,East,82,4.0,-999.0,85,-99.99,,,0.02,weatherlink.com 1.10,2013-08-19 04:12:00,
2013-08-19 00:29:00,83.0,78.0,30.07,East,98,1.0,-999.0,85,-99.99,,,0.02,weatherlink.com 1.10,2013-08-19 04:29:00,
2013-08-19 00:42:00,82.8,78.0,30.07,East,93,1.0,-999.0,85,-99.99,,,0.02,weatherlink.com 1.10,2013-08-19 04:42:00,
2013-08-19 00:57:00,83.0,78.0,30.07,SE,135,1.0,-999.0,85,-99.99,,,0.02,weatherlink.com 1.10,2013-08-19 04:57:00,
2013-08-19 01:12:00,82.7,78.0,30.07,SE,142,0.0,-999.0,86,-99.99,,,0.02,weatherlink.com 1.10,2013-08-19 05:12:00,
2013-08-19 01:29:00,82.5,78.0,30.07,East,83,0.0,-999.0,86,-99.99,,,0.02,weatherlink.com 1.10,2013-08-19 05:29:00,
2013-08-19 01:42:00,82.0,78.0,30.06,East,83,1.0,-999.0,88,-99.99,,,0.02,weatherlink.com 1.10,2013-08-19 05:42:00,
2013-08-19 01:57:00,81.7,78.0,30.05,SW,230,1.0,-999.0,87,-99.99,,,0.02,weatherlink.com 1.10,2013-08-19 05:57:00,
2013-08-19 02:12:00,80.9,78.0,30.04,WNW,296,1.0,-999.0,91,-99.99,,,0.02,weatherlink.com 1.10,2013-08-19 06:12:00,
2013-08-19 02:30:00,80.7,78.0,30.04,NE,36,1.0,-999.0,91,-99.99,,,0.02,weatherlink.com 1.10,2013-08-19 06:30:00,
2013-08-19 02:43:00,81.1,78.0,30.03,NNE,29,0.0,-999.0,90,-99.99,,,0.02,weatherlink.com 1.10,2013-08-19 06:43:00,
2013-08-19 02:58:00,81.1,78.0,30.03,NE,49,0.0,-999.0,89,-99.99,,,0.02,weatherlink.com 1.10,2013-08-19 06:58:00,
2013-08-19 03:13:00,81.5,78.0,30.03,East,88,1.0,-999.0,88,-99.99,,,0.02,weatherlink.com 1.10,2013-08-19 07:13:00,
2013-08-19 03:29:00,81.3,78.0,30.02,East,88,2.0,-999.0,89,-99.99,,,0.02,weatherlink.com 1.10,2013-08-19 07:29:00,
2013-08-19 03:42:00,80.7,78.0,30.02,ENE,73,2.0,-999.0,90,-99.99,,,0.02,weatherlink.com 1.10,2013-08-19 07:42:00,
2013-08-19 03:57:00,80.6,78.0,30.02,East,84,1.0,-999.0,90,-99.99,,,0.02,weatherlink.com 1.10,2013-08-19 07:57:00,
2013-08-19 04:12:00,80.5,77.0,30.02,East,84,1.0,-999.0,90,-99.99,,,0.02,weatherlink.com 1.10,2013-08-19 08:12:00,
2013-08-19 04:29:00,80.6,78.0,30.02,East,84,1.0,-999.0,91,-99.99,,,0.02,weatherlink.com 1.10,2013-08-19 08:29:00,
2013-08-19 04:43:00,80.7,78.0,30.01,ENE,58,2.0,-999.0,91,-99.99,,,0.02,weatherlink.com 1.10,2013-08-19 08:43:00,
2013-08-19 04:57:00,81.0,78.0,30.01,ENE,71,2.0,-999.0,89,-99.99,,,0.02,weatherlink.com 1.10,2013-08-19 08:57:00,
2013-08-19 05:13:00,81.3,78.0,30.00,East,91,2.0,-999.0,89,-99.99,,,0.02,weatherlink.com 1.10,2013-08-19 09:13:00,
2013-08-19 05:30:00,81.2,78.0,30.00,East,79,2.0,-999.0,89,-99.99,,,0.02,weatherlink.com 1.10,2013-08-19 09:30:00,
2013-08-19 05:43:00,81.5,78.0,30.00,East,100,2.0,-999.0,88,-99.99,,,0.02,weatherlink.com 1.10,2013-08-19 09:43:00,
2013-08-19 05:58:00,81.7,78.0,30.00,ENE,74,3.0,-999.0,87,-99.99,,,0.02,weatherlink.com 1.10,2013-08-19 09:58:00,
2013-08-19 06:13:00,82.0,78.0,30.00,SSE,153,2.0,-999.0,86,-99.99,,,0.02,weatherlink.com 1.10,2013-08-19 10:13:00,
2013-08-19 06:30:00,82.0,78.0,30.00,ESE,109,3.0,-999.0,86,-99.99,,,0.02,weatherlink.com 1.10,2013-08-19 10:30:00,
2013-08-19 06:43:00,82.3,78.0,30.00,SE,143,4.0,-999.0,86,-99.99,,,0.02,weatherlink.com 1.10,2013-08-19 10:43:00,
2013-08-19 06:58:00,82.1,78.0,30.00,SE,139,7.0,-999.0,87,-99.99,,,0.02,weatherlink.com 1.10,2013-08-19 10:58:00,
2013-08-19 07:13:00,82.3,78.0,30.00,ESE,117,5.0,-999.0,86,-99.99,,,0.02,weatherlink.com 1.10,2013-08-19 11:13:00,
2013-08-19 07:30:00,82.5,78.0,30.00,SE,138,3.0,-999.0,86,-99.99,,,0.02,weatherlink.com 1.10,2013-08-19 11:30:00,
2013-08-19 07:43:00,83.0,78.0,30.00,ESE,116,4.0,-999.0,84,-99.99,,,0.02,weatherlink.com 1.10,2013-08-19 11:43:00,
2013-08-19 07:58:00,82.9,77.0,30.01,East,97,5.0,-999.0,83,-99.99,,,0.02,weatherlink.com 1.10,2013-08-19 11:58:00,
2013-08-19 08:13:00,83.9,78.0,30.01,SSE,154,8.0,-999.0,81,-99.99,,,0.02,weatherlink.com 1.10,2013-08-19 12:13:00,
2013-08-19 08:30:00,83.9,78.0,30.01,SE,133,7.0,-999.0,82,-99.99,,,0.02,weatherlink.com 1.10,2013-08-19 12:30:00,
2013-08-19 08:43:00,84.7,78.0,30.02,ESE,105,10.0,-999.0,80,-99.99,,,0.02,weatherlink.com 1.10,2013-08-19 12:43:00,
2013-08-19 08:58:00,85.0,78.0,30.02,ESE,113,5.0,-999.0,80,-99.99,,,0.02,weatherlink.com 1.10,2013-08-19 12:58:00,
2013-08-19 09:13:00,85.1,78.0,30.02,SE,140,7.0,-999.0,79,-99.99,,,0.02,weatherlink.com 1.10,2013-08-19 13:13:00,
2013-08-19 09:30:00,84.7,78.0,30.02,SSE,152,10.0,-999.0,81,-99.99,,,0.02,weatherlink.com 1.10,2013-08-19 13:30:00,
2013-08-19 09:43:00,86.1,78.0,30.02,ESE,113,11.0,-999.0,77,-99.99,,,0.02,weatherlink.com 1.10,2013-08-19 13:43:00,
2013-08-19 09:58:00,85.5,78.0,30.03,SSE,155,14.0,-999.0,78,-99.99,,,0.02,weatherlink.com 1.10,2013-08-19 13:58:00,
2013-08-19 10:13:00,85.8,77.0,30.03,ESE,112,10.0,-999.0,75,-99.99,,,0.02,weatherlink.com 1.10,2013-08-19 14:13:00,
2013-08-19 10:28:00,86.3,78.0,30.04,SSE,160,6.0,-999.0,75,-99.99,,,0.02,weatherlink.com 1.10,2013-08-19 14:28:00,
2013-08-19 10:43:00,87.6,78.0,30.04,ESE,111,11.0,-999.0,72,-99.99,,,0.02,weatherlink.com 1.10,2013-08-19 14:43:00,
2013-08-19 11:00:00,86.5,78.0,30.04,ENE,71,5.0,-999.0,75,-99.99,,,0.02,weatherlink.com 1.10,2013-08-19 15:00:00,
2013-08-19 11:13:00,87.5,77.0,30.04,ESE,122,10.0,-999.0,72,-99.99,,,0.02,weatherlink.com 1.10,2013-08-19 15:13:00,
2013-08-19 11:28:00,87.7,78.0,30.04,South,181,8.0,-999.0,73,-99.99,,,0.02,weatherlink.com 1.10,2013-08-19 15:28:00,
2013-08-19 11:43:00,88.5,77.0,30.04,SE,130,14.0,-999.0,69,-99.99,,,0.02,weatherlink.com 1.10,2013-08-19 15:43:00,
2013-08-19 12:00:00,88.7,76.0,30.04,SE,136,11.0,-999.0,67,-99.99,,,0.02,weatherlink.com 1.10,2013-08-19 16:00:00,
2013-08-19 12:13:00,89.0,78.0,30.04,ESE,119,14.0,-999.0,70,-99.99,,,0.02,weatherlink.com 1.10,2013-08-19 16:13:00,
2013-08-19 12:28:00,88.0,79.0,30.03,SE,130,9.0,-999.0,74,-99.99,,,0.02,weatherlink.com 1.10,2013-08-19 16:28:00,
2013-08-19 12:43:00,89.2,77.0,30.03,SE,130,12.0,-999.0,67,-99.99,,,0.02,weatherlink.com 1.10,2013-08-19 16:43:00,
2013-08-19 13:00:00,89.0,78.0,30.03,SSE,161,7.0,-999.0,69,-99.99,,,0.02,weatherlink.com 1.10,2013-08-19 17:00:00,
2013-08-19 13:13:00,89.4,77.0,30.02,ESE,115,9.0,-999.0,67,-99.99,,,0.02,weatherlink.com 1.10,2013-08-19 17:13:00,
2013-08-19 13:28:00,89.2,78.0,30.02,ENE,67,9.0,-999.0,69,-99.99,,,0.02,weatherlink.com 1.10,2013-08-19 17:28:00,
2013-08-19 13:43:00,89.3,77.0,30.02,SSE,156,10.0,-999.0,67,-99.99,,,0.00,weatherlink.com 1.10,2013-08-19 17:43:00,
2013-08-19 14:00:00,89.5,78.0,30.02,East,96,9.0,-999.0,69,-99.99,,,0.00,weatherlink.com 1.10,2013-08-19 18:00:00,
2013-08-19 14:13:00,89.6,78.0,30.02,SSE,162,12.0,-999.0,68,-99.99,,,0.00,weatherlink.com 1.10,2013-08-19 18:13:00,
2013-08-19 14:28:00,88.4,77.0,30.01,NE,48,5.0,-999.0,69,-99.99,,,0.00,weatherlink.com 1.10,2013-08-19 18:28:00,
2013-08-19 14:43:00,89.2,78.0,30.01,East,95,5.0,-999.0,70,-99.99,,,0.00,weatherlink.com 1.10,2013-08-19 18:43:00,
2013-08-19 15:00:00,88.5,78.0,30.01,SE,146,12.0,-999.0,71,-99.99,,,0.00,weatherlink.com 1.10,2013-08-19 19:00:00,
2013-08-19 15:13:00,89.4,78.0,30.00,East,94,7.0,-999.0,68,-99.99,,,0.00,weatherlink.com 1.10,2013-08-19 19:13:00,
2013-08-19 15:28:00,89.1,78.0,29.99,SE,142,7.0,-999.0,69,-99.99,,,0.00,weatherlink.com 1.10,2013-08-19 19:28:00,
2013-08-19 15:43:00,89.3,78.0,29.98,ENE,74,9.0,-999.0,69,-99.99,,,0.00,weatherlink.com 1.10,2013-08-19 19:43:00,
2013-08-19 16:00:00,89.4,78.0,29.98,ESE,121,5.0,-999.0,70,-99.99,,,0.00,weatherlink.com 1.10,2013-08-19 20:00:00,
2013-08-19 16:13:00,89.1,78.0,29.98,East,98,8.0,-999.0,69,-99.99,,,0.00,weatherlink.com 1.10,2013-08-19 20:13:00,
2013-08-19 16:28:00,88.4,78.0,29.98,SE,141,6.0,-999.0,71,-99.99,,,0.00,weatherlink.com 1.10,2013-08-19 20:28:00,
2013-08-19 16:43:00,88.1,78.0,29.97,ESE,113,7.0,-999.0,72,-99.99,,,0.00,weatherlink.com 1.10,2013-08-19 20:43:00,
2013-08-19 17:00:00,87.7,78.0,29.98,SE,125,7.0,-999.0,72,-99.99,,,0.00,weatherlink.com 1.10,2013-08-19 21:00:00,
2013-08-19 17:13:00,88.3,77.0,29.98,SSE,155,7.0,-999.0,70,-99.99,,,0.00,weatherlink.com 1.10,2013-08-19 21:13:00,
2013-08-19 17:28:00,88.0,78.0,29.97,ESE,121,3.0,-999.0,72,-99.99,,,0.00,weatherlink.com 1.10,2013-08-19 21:28:00,
2013-08-19 17:43:00,86.9,78.0,29.98,ENE,77,9.0,-999.0,75,-99.99,,,0.00,weatherlink.com 1.10,2013-08-19 21:43:00,
2013-08-19 18:00:00,86.5,77.0,29.97,East,86,7.0,-999.0,74,-99.99,,,0.00,weatherlink.com 1.10,2013-08-19 22:00:00,
2013-08-19 18:13:00,87.0,76.0,29.97,ESE,111,6.0,-999.0,70,-99.99,,,0.00,weatherlink.com 1.10,2013-08-19 22:13:00,
2013-08-19 18:28:00,86.8,77.0,29.97,SE,125,6.0,-999.0,72,-99.99,,,0.00,weatherlink.com 1.10,2013-08-19 22:28:00,
2013-08-19 18:43:00,86.4,77.0,29.97,East,90,5.0,-999.0,74,-99.99,,,0.00,weatherlink.com 1.10,2013-08-19 22:43:00,
2013-08-19 19:00:00,86.1,77.0,29.98,SSE,147,7.0,-999.0,75,-99.99,,,0.00,weatherlink.com 1.10,2013-08-19 23:00:00,
2013-08-19 19:13:00,85.7,78.0,29.98,South,169,6.0,-999.0,77,-99.99,,,0.00,weatherlink.com 1.10,2013-08-19 23:13:00,
2013-08-19 19:28:00,85.1,77.0,29.98,SE,140,3.0,-999.0,77,-99.99,,,0.00,weatherlink.com 1.10,2013-08-19 23:28:00,
2013-08-19 19:43:00,84.6,77.0,29.99,ESE,123,3.0,-999.0,79,-99.99,,,0.01,weatherlink.com 1.10,2013-08-19 23:43:00,
2013-08-19 20:00:00,83.1,78.0,29.99,ESE,115,2.0,-999.0,85,-99.99,,,0.02,weatherlink.com 1.10,2013-08-20 00:00:00,
2013-08-19 20:13:00,82.9,77.0,29.99,SE,143,4.0,-999.0,83,-99.99,,,0.02,weatherlink.com 1.10,2013-08-20 00:13:00,
2013-08-19 20:28:00,82.8,78.0,30.00,SE,134,2.0,-999.0,84,-99.99,,,0.02,weatherlink.com 1.10,2013-08-20 00:28:00,
2013-08-19 20:43:00,82.7,78.0,30.00,SE,126,2.0,-999.0,84,-99.99,,,0.02,weatherlink.com 1.10,2013-08-20 00:43:00,
2013-08-19 21:00:00,82.7,78.0,30.00,East,93,0.0,-999.0,85,-99.99,,,0.02,weatherlink.com 1.10,2013-08-20 01:00:00,
2013-08-19 21:13:00,82.1,78.0,30.01,East,86,2.0,-999.0,86,-99.99,,,0.02,weatherlink.com 1.10,2013-08-20 01:13:00,
2013-08-19 21:28:00,81.9,77.0,30.01,NE,55,0.0,-999.0,85,-99.99,,,0.02,weatherlink.com 1.10,2013-08-20 01:28:00,
2013-08-19 21:43:00,82.1,78.0,30.01,NE,55,0.0,-999.0,86,-99.99,,,0.02,weatherlink.com 1.10,2013-08-20 01:43:00,
2013-08-19 22:00:00,81.8,77.0,30.01,NE,55,0.0,-999.0,86,-99.99,,,0.02,weatherlink.com 1.10,2013-08-20 02:00:00,
2013-08-19 22:13:00,82.1,77.0,30.02,NE,55,0.0,-999.0,85,-99.99,,,0.02,weatherlink.com 1.10,2013-08-20 02:13:00,
2013-08-19 22:28:00,81.7,78.0,30.03,NE,55,1.0,-999.0,87,-99.99,,,0.02,weatherlink.com 1.10,2013-08-20 02:28:00,
2013-08-19 22:43:00,81.3,78.0,30.03,NE,55,0.0,-999.0,89,-99.99,,,0.02,weatherlink.com 1.10,2013-08-20 02:43:00,
2013-08-19 23:00:00,81.0,78.0,30.03,NE,55,2.0,-999.0,90,-99.99,,,0.02,weatherlink.com 1.10,2013-08-20 03:00:00,
2013-08-19 23:13:00,80.7,78.0,30.02,NE,55,1.0,-999.0,91,-99.99,,,0.02,weatherlink.com 1.10,2013-08-20 03:13:00,
2013-08-19 23:28:00,81.0,78.0,30.02,East,100,0.0,-999.0,90,-99.99,,,0.02,weatherlink.com 1.10,2013-08-20 03:28:00,
2013-08-19 23:43:00,81.5,78.0,30.03,East,86,2.0,-999.0,89,-99.99,,,0.02,weatherlink.com 1.10,2013-08-20 03:43:00,